GFSGBSN_700_rhum_132.txt.gz
RH
100 100 99 95 94 94 90 89 86 83 83 88 86 84 82 86 80 73 74 71 68 67 62 54 48 48 51 41 38 30 29 12 6 7 5 10 24 38 36 28 26 28 20 21 22 19 9
99 100 100 100 100 99 99 100 94 89 95 94 93 92 89 86 86 81 78 78 72 72 62 59 54 54 50 43 43 35 28 27 8 5 6 7 28 35 33 28 23 25 28 24 31 32 27
98 100 100 100 100 100 100 98 99 100 100 100 100 100 96 87 86 85 87 87 82 76 72 67 60 54 46 38 44 39 32 24 13 5 5 20 30 31 27 26 30 31 23 18 16 25 26
99 100 99 100 100 100 100 100 100 100 100 100 100 99 99 98 92 95 84 91 90 82 81 70 64 60 48 41 35 30 28 25 13 6 5 9 11 7 21 33 33 28 23 24 19 24 28
87 87 99 98 100 99 99 100 98 100 100 100 100 100 100 100 99 98 94 94 87 86 83 82 72 66 52 42 34 26 21 22 12 6 6 7 7 8 28 33 34 31 21 20 20 21 24
39 60 31 56 73 99 100 100 100 99 100 100 100 100 100 100 100 100 100 99 94 90 90 88 83 67 50 40 33 23 13 15 7 6 6 6 7 18 31 37 26 19 23 22 17 24 25
3 4 5 4 7 21 92 99 99 99 99 100 99 100 100 99 100 98 100 100 100 98 96 83 73 62 42 39 32 19 12 8 6 8 7 10 23 36 30 34 30 19 21 21 18 18 24
1 1 1 1 2 4 8 28 36 80 71 86 94 92 97 94 98 97 98 99 99 92 81 75 70 71 66 49 37 26 14 9 9 9 10 37 41 23 31 29 28 27 27 26 23 18 18
1 1 1 1 1 2 5 12 39 56 98 92 67 48 53 65 79 85 89 93 94 98 94 79 77 68 58 40 40 29 23 10 27 23 40 33 33 30 29 27 29 30 31 27 22 21 26
2 2 2 2 2 3 39 28 100 100 95 83 87 94 85 87 68 93 86 93 92 92 95 73 57 51 55 50 46 34 48 22 51 45 40 32 30 33 32 30 27 33 28 25 24 29 28
2 2 2 3 7 9 14 26 99 98 60 99 98 100 95 98 93 97 100 96 88 98 95 49 57 51 51 48 40 33 29 29 48 45 40 30 28 31 34 30 27 30 28 33 31 36 33
3 2 2 2 3 9 22 24 74 94 85 97 93 99 98 97 92 100 98 99 99 92 89 54 50 46 43 44 38 34 26 38 31 45 40 34 27 29 33 32 30 28 38 42 40 36 40
4 4 3 2 3 4 12 38 71 63 98 99 85 99 97 100 86 94 96 98 98 94 57 46 54 62 44 44 34 40 40 33 48 49 45 36 33 36 42 38 35 37 50 43 43 42 43
6 5 5 4 3 3 4 19 31 76 61 97 80 98 98 99 98 94 98 98 98 49 50 37 41 57 60 58 57 46 60 33 43 46 39 41 36 40 45 43 41 46 48 35 39 41 31
8 6 6 5 5 4 3 4 20 51 66 81 97 98 98 87 97 98 97 98 81 62 44 41 38 45 56 56 49 47 55 57 40 46 45 33 34 34 42 44 42 42 44 39 36 36 42
11 9 8 7 6 6 5 5 4 16 78 70 88 97 97 95 97 97 97 94 75 42 48 43 46 44 48 53 48 50 58 61 52 44 46 35 39 35 36 44 45 38 43 48 44 52 51
14 12 10 9 8 8 8 7 7 6 14 50 80 97 94 97 98 97 97 90 61 42 64 60 51 41 42 46 47 49 55 53 50 46 46 42 49 39 43 52 46 44 41 45 49 47 42
18 16 14 12 11 9 10 9 9 10 8 21 36 77 94 98 97 96 94 66 45 57 77 89 79 68 43 42 48 59 49 50 50 47 48 47 51 43 41 49 44 36 37 40 54 52 48
22 22 19 17 15 14 13 12 13 13 13 42 66 64 76 96 97 97 71 65 90 93 80 93 97 80 62 54 47 70 55 90 68 61 54 54 56 52 38 45 48 44 39 40 48 52 57
29 26 25 23 21 20 18 16 16 15 22 47 61 93 60 83 97 97 73 97 96 92 92 96 86 90 76 81 62 59 97 96 95 97 65 60 57 54 49 37 37 46 55 60 51 68 72
36 33 30 29 26 24 21 18 16 20 30 48 63 60 63 83 97 94 91 86 94 92 90 97 96 90 80 85 65 73 81 93 98 96 84 75 72 61 54 46 45 63 69 68 88 94 99
43 39 35 32 29 26 24 18 17 32 31 45 57 72 93 65 90 98 100 95 92 90 84 95 81 67 93 91 80 71 79 93 91 92 74 85 72 68 71 56 69 74 64 89 86 91 78
46 40 37 33 30 26 20 22 30 38 38 40 34 58 92 92 91 96 93 87 90 83 81 75 63 67 89 84 93 94 81 89 86 86 63 87 87 80 75 65 74 77 74 84 68 53 45
49 44 38 31 22 17 26 44 39 44 51 48 29 59 98 65 87 92 99 83 87 88 90 80 86 91 66 82 72 67 85 91 81 66 76 87 88 84 83 79 90 67 55 61 54 46 42
58 48 38 23 14 23 50 40 35 44 56 50 36 74 96 97 85 87 94 75 84 93 82 66 62 79 93 94 90 87 77 72 72 65 63 58 92 92 96 97 82 66 48 44 44 46 55
60 43 22 20 46 50 47 34 34 32 43 46 44 74 97 95 89 96 54 92 96 94 97 82 71 62 66 92 91 95 97 87 72 86 54 61 84 93 97 95 90 51 46 49 48 78 50
50 29 32 55 63 63 54 51 56 50 46 49 53 84 97 96 80 97 94 91 95 97 95 79 79 85 93 97 83 90 87 74 85 78 87 86 82 88 89 82 74 43 55 47 54 61 65
34 41 55 66 70 72 66 71 57 52 54 66 52 96 96 90 81 76 92 83 91 92 97 91 98 94 95 91 97 93 91 75 80 70 71 88 95 85 80 83 83 62 64 60 57 57 66
56 58 72 79 78 79 72 59 63 80 80 90 83 89 93 97 90 91 93 86 97 87 76 77 83 83 69 64 86 80 88 73 68 68 57 61 62 72 86 88 74 74 75 76 65 71 58

GFSGBSN_700_rhum_135.txt.gz
RH
100 100 100 99 100 94 86 76 46 48 47 53 62 67 66 67 66 63 70 69 69 68 64 64 63 57 53 42 33 46 31 32 26 6 5 5 6 22 30 34 33 32 28 24 23 22 23
98 99 100 100 100 99 100 100 95 91 84 86 86 89 86 80 77 76 74 79 79 78 72 67 65 64 60 48 44 40 35 36 30 27 6 5 10 38 35 32 32 25 25 24 24 24 17
100 100 99 99 99 99 98 100 98 100 100 99 100 100 98 93 89 84 82 87 88 85 82 78 72 66 60 49 55 46 35 36 34 25 15 6 8 24 30 26 30 25 24 25 23 26 25
100 100 99 100 100 100 100 100 98 99 100 100 100 100 100 99 100 99 83 88 87 87 85 81 78 78 58 50 52 52 44 32 29 29 19 6 5 5 14 19 22 24 24 19 13 15 20
88 100 100 98 100 100 100 100 99 100 100 100 100 100 100 100 100 99 97 91 92 91 89 87 80 79 63 46 48 45 36 32 25 24 20 6 6 8 13 18 26 30 31 20 12 14 23
26 32 98 87 71 95 86 94 100 99 99 100 100 100 100 100 100 100 99 100 100 92 87 94 83 83 66 63 56 45 38 26 16 19 14 9 7 9 9 10 30 20 27 15 16 22 22
7 8 18 78 18 10 16 31 26 70 92 98 100 100 100 100 99 100 99 100 100 99 98 98 90 75 76 60 58 53 48 37 14 13 16 11 9 8 6 6 9 18 22 24 23 23 23
2 2 2 2 3 2 2 3 5 6 34 66 100 98 99 98 98 98 98 99 99 96 86 91 92 83 71 77 68 60 56 40 26 14 15 20 17 9 6 12 28 29 24 30 25 25 24
1 1 1 1 1 1 1 1 2 3 5 6 28 76 89 83 56 60 92 94 97 93 85 64 66 63 72 73 71 62 60 49 37 17 11 11 9 10 14 14 33 32 31 29 28 24 25
2 2 2 2 2 2 1 2 3 6 31 97 81 93 67 85 79 69 59 89 96 91 89 56 46 47 48 63 72 67 56 47 38 27 15 29 12 22 37 32 30 32 28 29 31 29 26
2 2 2 2 2 2 2 2 3 26 74 83 100 67 90 100 98 92 89 85 99 99 95 52 58 52 46 52 56 44 55 46 48 32 38 36 26 19 36 34 32 32 29 30 32 29 28
3 3 2 2 2 2 2 2 4 16 82 99 99 85 100 98 98 94 87 97 98 99 91 48 54 50 45 44 48 43 35 48 50 46 48 43 30 32 29 31 33 31 28 29 32 35 48
4 4 3 3 3 2 2 2 2 7 75 99 98 89 93 88 91 97 99 100 97 98 49 46 46 52 49 42 40 46 37 41 48 51 44 34 32 27 32 32 31 33 33 50 58 58 54
6 5 5 4 4 3 3 2 2 3 6 70 95 98 100 100 100 100 98 98 95 57 43 39 42 52 51 44 40 37 44 40 35 37 39 43 40 34 26 32 35 33 34 43 63 68 47
8 8 6 6 6 5 4 4 3 3 6 27 60 76 97 99 100 99 97 98 83 59 51 52 43 39 63 62 50 51 48 36 35 32 42 40 42 34 28 32 38 38 38 37 36 38 50
12 10 9 8 6 6 6 5 5 4 3 8 30 55 56 85 98 98 98 97 73 51 49 55 59 51 45 58 56 56 60 42 42 37 37 41 43 35 34 33 36 36 41 48 49 62 58
16 14 12 11 9 8 7 7 7 7 6 4 6 36 32 72 97 97 97 95 68 41 52 64 65 59 50 49 49 58 57 51 47 39 38 42 45 42 35 36 39 44 44 47 46 45 64
20 19 17 15 13 12 10 9 8 8 7 7 6 6 26 52 93 97 96 91 68 43 58 79 72 55 54 56 58 52 92 67 64 61 57 46 46 53 44 38 38 43 38 45 50 58 50
25 23 22 20 18 15 14 12 12 11 10 10 9 9 14 62 74 84 97 90 82 62 73 92 92 67 66 70 76 54 63 83 98 95 71 58 50 54 51 46 44 45 46 42 44 48 52
29 27 25 23 22 20 18 17 16 15 15 13 12 24 21 30 29 49 74 96 91 81 84 94 88 80 76 80 74 80 78 94 95 92 80 91 68 51 54 46 50 50 46 43 42 47 50
36 32 29 27 26 25 22 21 21 20 19 16 21 24 33 37 92 92 53 54 94 85 87 78 95 77 74 83 82 88 92 96 92 97 98 97 98 91 60 54 54 78 67 58 60 66 68
42 38 37 34 31 29 26 26 24 23 21 22 22 24 39 36 39 71 82 95 75 96 84 95 93 83 87 92 81 96 94 91 84 86 91 96 97 95 96 76 64 91 89 79 72 72 78
52 50 46 42 37 34 32 29 27 25 23 28 32 38 48 34 56 98 72 62 66 84 94 94 95 86 96 82 96 92 86 83 84 74 80 88 79 81 78 52 51 62 61 48 45 41 44
65 58 51 45 40 37 34 31 28 25 42 41 43 51 46 27 29 26 71 98 61 69 98 86 98 97 68 78 91 88 80 74 70 70 79 74 79 86 82 69 88 63 39 37 41 38 48
68 65 60 53 42 37 33 27 19 18 46 61 53 62 57 48 47 30 47 65 71 71 94 96 91 87 98 97 98 99 82 62 48 50 49 52 63 82 89 76 68 57 50 62 69 73 71
72 64 56 49 41 33 23 17 16 16 38 47 69 70 79 76 28 56 91 98 94 76 98 91 96 81 99 98 97 89 74 68 65 57 44 47 61 93 93 96 83 52 53 50 73 68 54
88 74 61 50 39 25 20 21 27 34 39 42 29 58 88 89 21 61 83 89 71 90 97 97 90 97 100 95 95 84 80 70 75 73 71 77 99 96 100 94 80 49 54 50 54 60 48
95 76 61 44 28 31 43 51 58 53 53 69 37 39 66 68 40 48 95 96 90 88 90 83 98 97 96 89 95 87 78 73 70 67 75 78 91 97 96 96 91 68 66 68 66 65 70
96 84 43 30 40 63 66 64 50 58 66 77 61 54 58 77 37 69 93 95 97 90 98 93 93 87 78 81 82 80 79 75 70 71 56 65 63 70 76 70 65 63 58 58 62 54 71

GFSGBSN_700_rhum_141.txt.gz
RH
100 99 65 36 28 24 24 24 25 24 24 30 35 36 36 34 30 26 23 25 25 25 22 20 21 19 23 23 18 32 33 35 37 33 32 30 7 6 5 4 10 20 13 19 26 29 28
100 98 98 55 62 46 51 61 59 53 41 36 37 35 32 34 34 32 28 27 29 39 40 40 41 43 40 31 31 36 34 39 46 40 38 36 22 10 7 6 17 30 16 24 28 31 31
86 100 100 100 100 100 100 100 100 100 100 100 98 94 92 85 60 53 57 51 66 68 60 58 59 57 52 39 50 49 47 39 46 46 39 37 31 13 13 10 19 29 31 31 32 32 31
94 98 100 100 100 100 99 99 100 100 100 100 100 100 100 99 100 96 76 79 83 93 82 72 67 68 56 52 55 61 56 47 40 48 48 37 34 26 13 14 24 21 31 32 28 29 30
100 100 92 99 99 100 99 99 98 100 99 81 84 76 95 98 98 88 78 78 80 84 85 84 76 74 69 62 60 56 53 52 50 45 39 39 32 27 19 14 16 21 24 24 25 27 27
100 100 100 100 91 100 100 91 100 100 96 90 91 100 100 98 86 82 83 80 99 100 98 98 92 84 72 69 59 57 58 61 52 45 47 32 27 25 23 18 19 10 13 14 16 16 20
98 96 99 99 100 80 94 95 95 96 97 99 100 100 96 90 99 100 100 100 100 98 96 71 76 89 84 78 69 65 64 62 65 42 40 32 26 22 26 25 18 15 17 16 12 9 11
66 69 39 59 52 73 72 52 48 47 82 100 100 96 100 100 92 97 98 90 86 80 66 58 64 76 82 85 72 66 66 70 64 57 54 46 41 36 28 19 17 18 15 14 10 9 12
19 18 18 16 18 17 12 12 23 39 51 57 71 59 71 78 45 47 61 59 53 63 79 47 56 66 59 76 67 59 60 55 60 72 71 60 51 47 31 28 20 15 13 11 12 10 8
9 7 6 6 5 5 4 4 3 6 47 27 31 44 16 17 15 20 38 38 36 69 89 55 49 47 50 55 61 51 46 47 62 74 74 65 63 56 45 33 21 18 16 12 11 22 36
4 3 3 2 2 2 2 2 2 2 5 6 4 5 6 8 36 40 35 37 49 55 76 42 49 53 47 46 42 39 46 56 57 70 72 60 55 50 43 42 32 23 18 19 19 23 32
3 2 2 2 2 2 2 2 2 2 2 4 5 16 47 46 73 64 66 78 64 60 65 25 52 52 48 45 47 46 42 54 61 74 76 71 64 53 44 41 36 34 24 43 42 41 48
3 3 3 3 2 2 2 2 2 2 2 7 18 87 99 93 96 95 93 90 90 93 20 33 55 56 54 50 47 49 48 56 59 73 71 63 64 65 59 48 42 48 34 51 58 62 49
5 4 3 3 3 3 2 2 2 2 3 6 44 60 99 99 97 92 100 99 92 38 25 49 57 65 60 56 50 52 58 47 59 61 53 56 51 41 44 52 55 37 45 45 59 65 40
5 5 4 4 4 3 3 3 2 2 2 5 40 100 98 98 98 98 97 98 78 61 51 36 33 50 31 51 62 64 55 56 48 58 63 55 48 40 38 37 45 50 52 42 45 53 58
7 6 6 6 5 5 4 4 3 3 2 3 19 69 99 96 98 99 100 90 59 65 67 65 57 50 56 47 48 52 63 57 54 53 51 56 59 47 42 40 38 40 41 49 57 90 84
9 9 9 8 8 7 6 5 5 4 4 3 4 22 57 88 96 98 97 93 76 77 62 69 70 66 55 53 56 58 68 64 65 66 59 55 56 50 49 44 39 41 48 46 44 51 60
12 12 12 13 12 10 9 8 6 5 5 5 5 4 6 24 70 93 96 95 92 86 81 89 86 72 67 62 73 70 64 69 77 82 79 87 70 55 54 50 44 48 44 47 54 52 50
15 15 16 16 16 15 13 12 10 8 7 7 6 5 6 9 25 34 75 91 92 86 94 96 94 94 81 74 81 78 68 70 67 78 75 78 98 96 68 56 55 52 45 48 50 53 55
20 20 20 20 20 20 19 17 15 13 11 10 9 9 10 10 8 11 20 31 41 49 77 85 95 95 84 73 71 84 80 68 67 72 66 81 95 99 96 97 96 82 66 54 57 53 76
24 24 24 24 25 25 24 23 21 19 16 15 14 13 12 13 10 10 14 13 8 27 56 82 92 73 75 100 99 88 75 71 66 70 71 73 93 98 97 93 94 97 95 90 79 70 60
29 29 30 30 30 30 29 28 25 24 22 21 20 18 16 14 15 17 23 11 9 18 34 35 79 61 62 79 78 82 95 97 75 72 69 84 78 92 94 76 92 88 80 94 97 99 97
37 39 39 39 38 36 33 33 31 29 27 25 24 23 22 21 20 21 16 14 14 18 15 31 43 60 73 48 62 57 69 90 89 88 87 99 96 95 94 82 88 79 48 56 85 96 96
62 57 52 48 45 42 40 40 38 36 34 31 31 30 28 25 25 22 20 18 17 16 13 18 67 91 56 90 78 60 64 86 93 88 96 95 96 95 94 90 98 45 54 59 59 48 74
94 82 67 57 53 51 49 47 44 41 38 37 35 34 33 30 28 26 24 21 20 17 13 12 14 51 68 93 97 98 86 100 89 100 92 84 89 97 91 87 58 48 56 56 64 55 85
98 95 85 75 68 62 56 52 50 48 44 40 37 38 37 38 30 31 31 28 22 18 15 11 12 16 16 40 99 96 88 94 93 84 69 98 97 100 85 89 90 61 63 61 71 60 78
97 97 89 74 71 73 71 67 64 58 50 39 33 44 69 55 28 43 31 29 30 26 24 20 15 37 80 51 90 99 95 86 90 67 74 100 100 98 98 92 72 53 59 65 71 60 64
92 94 93 87 76 75 72 67 61 56 53 39 30 29 45 36 24 26 23 28 24 25 23 22 23 30 71 98 92 96 96 93 82 59 54 57 82 94 100 97 90 66 70 70 61 58 57
92 90 91 92 96 84 75 80 71 59 57 40 33 47 65 79 34 32 27 22 25 18 38 47 34 36 96 98 91 98 95 96 82 63 60 74 63 67 64 65 74 71 64 59 46 42 42

GFSGBSN_700_rhum_147.txt.gz
RH
100 91 98 97 92 81 70 51 27 18 17 20 23 25 28 30 31 33 30 27 27 26 24 22 21 17 16 15 11 16 14 13 16 18 18 21 22 22 20 13 9 8 7 7 8 16 30
99 94 96 95 98 100 100 98 66 34 22 22 25 28 31 32 34 35 33 30 27 26 22 22 20 20 16 16 19 23 27 28 26 28 31 31 33 32 31 25 22 11 10 8 7 10 24
99 100 100 99 96 95 100 98 98 99 56 29 27 31 33 39 38 36 36 36 32 35 30 26 29 32 27 29 42 34 44 42 34 34 40 43 42 43 37 31 27 20 14 10 9 9 12
96 100 99 100 100 98 99 94 99 98 99 53 53 33 40 45 50 54 50 53 79 84 76 70 82 74 61 57 62 57 56 52 51 44 50 54 46 44 49 41 33 28 24 21 13 10 15
75 94 92 99 100 100 100 98 99 99 98 92 56 58 74 82 98 99 99 99 100 86 87 87 77 75 66 60 61 61 55 56 58 54 52 53 55 48 48 47 39 33 30 25 20 15 17
87 98 79 98 92 99 98 100 100 99 98 100 100 100 99 100 99 94 91 97 98 98 82 72 65 65 63 63 64 59 59 64 58 60 57 53 54 57 44 38 38 34 30 27 24 22 18
86 96 94 76 100 100 99 99 100 98 100 100 100 100 99 99 96 92 92 87 96 88 63 59 69 70 76 70 66 66 56 65 66 64 57 54 54 51 45 44 38 30 29 29 26 26 24
99 80 100 86 100 94 91 100 100 100 99 100 100 99 100 100 99 95 96 87 84 86 73 68 70 62 74 81 66 56 58 70 73 72 70 68 63 52 55 53 49 46 37 32 31 29 24
93 97 89 90 92 99 97 99 100 98 99 99 99 99 100 99 100 100 96 98 96 97 98 63 63 59 55 62 57 51 52 55 72 88 80 71 63 62 59 53 51 49 48 45 40 37 29
98 100 98 99 95 83 96 90 96 90 88 96 97 98 98 97 98 97 100 100 100 99 94 68 49 45 43 42 43 40 44 58 72 80 76 74 64 64 64 62 59 58 53 55 54 40 37
48 35 35 41 62 65 76 85 76 68 49 36 43 41 74 79 75 72 74 75 60 73 90 51 44 41 44 46 47 49 50 58 64 84 80 61 60 58 60 54 61 62 62 60 51 43 39
52 45 35 31 37 37 37 39 27 20 32 18 16 18 28 41 63 70 60 51 47 49 61 38 43 45 51 56 56 65 56 53 65 89 96 83 73 67 62 58 56 53 54 51 48 48 48
96 97 68 39 30 26 22 18 16 14 14 26 93 100 100 97 62 49 62 51 57 50 30 38 48 58 60 61 60 68 63 56 69 74 78 73 68 67 66 70 66 51 52 52 58 58 51
98 100 64 37 32 27 16 10 8 6 7 14 100 100 100 96 80 74 79 77 71 38 23 54 59 65 66 66 64 61 61 59 56 57 69 64 59 53 59 66 67 66 58 58 86 75 55
83 88 79 36 22 19 11 6 5 5 5 10 26 90 100 100 33 50 92 99 62 48 42 37 58 50 51 47 48 60 64 61 63 61 67 72 65 61 56 59 57 58 67 61 87 96 97
98 98 94 70 32 14 8 5 5 5 6 10 48 63 75 44 96 98 95 99 90 77 64 46 47 40 49 51 45 46 56 73 66 66 63 75 70 62 59 57 53 55 59 64 93 94 87
65 77 45 56 21 13 9 9 10 10 12 22 47 85 93 98 98 99 96 100 100 96 84 72 66 59 58 54 51 54 62 69 88 93 85 77 76 69 65 65 66 59 58 56 65 93 80
60 25 25 20 16 11 9 8 9 11 14 19 81 78 97 98 98 97 98 100 99 97 94 81 69 68 66 65 62 54 65 66 64 62 63 73 89 94 88 58 52 51 79 69 83 96 98
20 17 12 10 9 8 6 5 5 4 6 16 32 100 100 93 100 100 97 97 96 94 96 95 87 85 81 81 84 76 68 68 70 72 75 80 83 76 56 50 56 57 56 63 87 97 96
14 11 10 10 10 10 8 7 6 5 5 8 20 49 78 97 96 97 95 94 95 91 94 92 89 88 91 90 82 76 69 66 65 71 82 87 82 83 71 59 62 60 48 59 67 90 82
13 13 12 12 13 13 12 10 8 7 7 7 7 7 11 10 26 41 42 30 14 16 19 19 16 15 28 58 73 77 70 67 68 75 76 92 95 88 78 68 72 65 58 56 76 56 86
14 15 16 17 17 17 17 15 13 11 9 8 7 7 6 7 8 8 7 8 8 8 10 8 9 13 17 30 68 78 94 100 90 81 100 98 91 90 81 66 71 83 56 36 66 53 74
20 18 19 19 20 21 21 21 20 18 15 12 11 10 10 10 10 9 9 10 11 11 13 14 14 14 14 15 22 33 67 82 82 87 95 92 96 98 89 82 86 98 35 44 50 43 48
40 29 25 25 25 25 26 24 24 24 22 21 20 19 18 16 16 14 14 15 15 15 17 17 18 18 25 28 28 32 34 32 36 27 44 61 97 96 95 97 93 55 51 53 60 41 46
44 30 30 32 30 31 32 32 31 30 29 27 26 25 24 23 22 23 22 22 22 22 22 22 22 24 24 20 17 14 14 17 11 15 27 35 64 100 97 85 70 57 57 50 47 26 35
55 49 38 40 40 42 41 40 39 37 36 36 36 35 33 32 30 32 31 31 30 30 29 27 27 26 24 22 23 25 24 23 37 62 83 90 92 99 90 89 75 52 48 43 41 47 38
80 84 76 62 56 53 51 50 48 47 46 46 45 44 44 42 42 42 42 42 41 40 38 36 36 34 38 35 50 83 81 55 56 50 55 89 99 98 100 96 74 51 56 58 66 48 53
90 94 92 91 78 68 64 62 60 59 59 59 60 59 58 54 49 43 37 33 29 27 27 35 32 30 34 42 62 68 59 45 53 40 51 48 67 92 94 96 89 65 64 56 50 46 61
80 89 93 90 91 84 73 67 66 67 65 60 56 58 57 53 45 43 41 35 28 30 31 28 31 47 53 48 55 66 65 86 81 86 90 88 70 60 69 61 72 78 52 54 56 46 54